Location: Ebersheim
(48.3033°N, 7.4991°E)
Time: 11:27:09
(UTC+00:00)

NOSS 3-2 (C) - Pass Details

Date: 27 February 2020
Orbit: 811 x 1401 km, 63.4° (Epoch: 06 April)

Event Time Altitude Azimuth Distance (km) Brightness Sun altitude
Rises 19:00:48 0° 317° (NW) 3,873 7.5 -19.1°
Reaches altitude 10° 19:03:25 10° 322° (NW) 2,998 6.7 -19.6°
Maximum altitude 19:10:31 54° 39° (NE) 1,481 4.2 -20.7°
Enters shadow 19:13:51 34° 97° (E) 1,977 4.5 -21.3°
